Regional Weather Roundup
Issued by NWS Wilmington, NC

Home | Current Version | Previous Version | Text Only | Print | Product List | Glossary On
Versions: 1 2 3 4 5 6 7 8 9 10 11 12 13 14 15 16 17 18 19 20 21 22 23 24 25 26 27 28 29 30 31 32 33 34 35 36 37 38 39 40 41 42 43 44 45 46 47 48 49 50
000
ASUS42 KILM 020710
RWRILM
RWRILM
REGIONAL HOURLY WEATHER ROUNDUP
NATIONAL WEATHER SERVICE WILMINGTON NC
300 AM EDT SAT AUG 02 2014

NOTE: "FAIR" INDICATES FEW OR NO CLOUDS BELOW 12,000 FEET WITH NO
SIGNIFICANT WEATHER AND/OR OBSTRUCTIONS TO VISIBILITY.

...............WFO WILMINGTON COUNTY WARNING AREA...............

......COASTAL NC AND SC COUNTIES......

CITY           SKY/WX    TMP DP  RH WIND       PRES   REMARKS
WILMINGTON     MOCLDY    77  74  90 CALM      30.03F
SOUTHPORT      RAIN      76  74  93 SE9G16    30.03S
N MYRTLE BEACH MOCLDY    76  73  91 VRB3      30.02S
MYRTLE BEACH   MOCLDY    75  73  94 N5        30.01F

......INLAND NC AND SC COUNTIES.......

CITY           SKY/WX    TMP DP  RH WIND       PRES   REMARKS
LUMBERTON      CLOUDY    70  68  93 N6        30.04F FOG
ELIZABETHTOWN  CLOUDY    71  71 100 CALM      30.05S FOG
WHITEVILLE     FOG       73  72  96 CALM      30.03S VSB 1
FLORENCE       CLOUDY    70  69  97 N8        30.03F FOG
DARLINGTON     CLOUDY    70  64  83 N7        30.06F

....................REST OF NORTH CAROLINA......................

.........EASTERN NC.........

CITY           SKY/WX    TMP DP  RH WIND       PRES   REMARKS
CAPE HATTERAS  LGT RAIN  74  74 100 S15G23    30.09S
JACKSONVILLE   CLOUDY    72  70  94 CALM      30.05S
MOREHEAD CITY  LGT RAIN  77  74  90 S12       30.07S
KENANSVILLE    FOG       70  69  96 CALM      30.06F VSB 3/4
NEW BERN       PTCLDY    74  71  91 SE3       30.07R
ELIZABETH CITY PTCLDY    74  72  93 S7        30.05F

.........CENTRAL NC.........

CITY           SKY/WX    TMP DP  RH WIND       PRES   REMARKS
RALEIGH DURHAM DRIZZLE   65  63  93 VRB3      30.10F FOG
ROCKY MOUNT    CLOUDY    66  65  96 N7        30.06F FOG
ROANOKE RAPIDS NOT AVBL
FAYETTEVILLE   CLOUDY    68  67  96 N9        30.05F FOG
HOFFMAN        CLOUDY    66  65  97 N7        30.08F FOG

.........WESTERN NC.........

CITY           SKY/WX    TMP DP  RH WIND       PRES   REMARKS
CHARLOTTE      CLOUDY    66  63  90 NE6       30.11R
GREENSBORO     CLOUDY    62  62 100 NE6       30.12F FOG
HICKORY        NOT AVBL
BOONE          NOT AVBL
ASHEVILLE      NOT AVBL

.....................REST OF SOUTH CAROLINA.....................

.........EASTERN SC.........

CITY           SKY/WX    TMP DP  RH WIND       PRES   REMARKS
CHARLESTON     CLOUDY    76  73  91 NE3       30.01F THUNDER
BEAUFORT MCAS  CLOUDY    77  74  90 NE6       29.99F
HILTON HEAD    NOT AVBL

.........CENTRAL SC.........

CITY           SKY/WX    TMP DP  RH WIND       PRES   REMARKS
COLUMBIA       CLOUDY    73  68  84 NE6       30.03F
ORANGEBURG     CLOUDY    74  71  91 N3        30.04S
SUMTER SHAW    CLOUDY    71  70  98 NE8       30.03S

.........WESTERN SC.........

CITY           SKY/WX    TMP DP  RH WIND       PRES   REMARKS
GREENVILLE     NOT AVBL
ROCK HILL      CLOUDY    67  65  93 NE3       30.10F
ANDERSON       CLOUDY    68  64  87 NE8       30.08F
CLEMSON        NOT AVBL
GREENWOOD      CLOUDY    67  64  90 NE5       30.09S


...................COASTAL AND OFFSHORE REPORTS..................

................LOCAL PIERS AND NC RESERVE................


STATION/POSITION TIME  SKY/WX   TEMP    WIND        PRES    VSBY
                                AIR SEA DIR/SP/G
                 (UTC)          (F)     (DEG/KT/KT) (MB)    (MI)
JOHNY MRCER PIER 0700            79 82  160/  8/ 10 1016.3R
NC RESRV MASNBRO 0600            78     120/  4     1017.0S
OCEAN CREST PIER 0700            77 82  120/ 15/ 17 1015.7F
SPRINGMAID  PIER 0700            78 82  320/  3/  4 1016.1F


................COASTAL AND OFFSHORE BUOYS................


STATION/POSITION TIME  SKY/WX   TEMP    WIND        PRES    VSBY
                                AIR SEA DIR/SP/G
                 (UTC)          (F)     (DEG/KT/KT) (MB)    (MI)
DIMNDSHOAL 41025 0700                   VRB 14/ 17  1018.5F
WVE H/P(F/S)=  4/ 6 WND WVE H/P(F/S)=  3/ 6 SWL H/P/D(F/S/D)=  2/110/ 9

CAPE LOOKOUT     0600            78     180/ 16/ 18 1018.1F
ONSLOW BAY 41036 0700            78 81  120/ 12/ 14 1018.0F
WVE H/P(F/S)=  4/ 6 WND WVE H/P(F/S)=  3/ 6 SWL H/P/D(F/S/D)=  2/140/ 6

5 WRITEBCH 41038 0600            75 81  150/  8/ 10   N/A
MASONBORO  41110 0700               81                N/A
WVE H/P(F/S)=  4/ 6 WND WVE H/P(F/S)=  3/ 6

WILM HARBR 41108 NOT AVBL
27WRITEBCH 41037 0600            74 81  180/  6/ 10 1017.0F
FRYING PAN 41013 NOT AVBL
SUNST NRSH 41024 0600            77      50/  6/  8 1016.4F
CAPRS NRSH 41029 0600            78     180/  2/  4   N/A
EDISTO     41004 0700            82 82  180/ 12/ 16 1014.9F
WVE H/P(F/S)=  3/ 6 WND WVE H/P(F/S)=  2/ 5 SWL H/P/D(F/S/D)=  2/ 6



..........OFFSHORE BUOYS BEYOND 100 NM OFFSHORE...........
.....IN A TRIANGLE---HAT TO BERMUDA TO BAHAMAS TO HAT.....


STATION/POSITION TIME  SKY/WX   TEMP    WIND        PRES    VSBY
                                AIR SEA DIR/SP/G
                 (UTC)          (F)     (DEG/KT/KT) (MB)    (MI)
150E HAT   41001 NOT AVBL
W BERMUDA  41048 0554            81 82  120/ 14/ 16 1020.8F
WVE H/P(F/S)=  4/ 6 WND WVE H/P(F/S)=  3/ 6 SWL H/P/D(F/S/D)=  2/140/ 8

ATLANTIC S 41049 0622            79 83  170/  8/ 10 1019.1F
WVE H/P(F/S)=  3/ 7 WND WVE H/P(F/S)=  2/ 4 SWL H/P/D(F/S/D)=  3/ 90/ 7

E BAHAMAS  41046 0641            82 84  120/ 17/ 19 1016.4F
WVE H/P(F/S)=  4/ 6 WND WVE H/P(F/S)=  3/ 6 SWL H/P/D(F/S/D)=  2/110/11

NE BAHAMAS 41047 0557            82 84  110/ 14/ 16 1017.9F
WVE H/P(F/S)=  5/ 7 WND WVE H/P(F/S)=  3/ 6 SWL H/P/D(F/S/D)=  3/120/ 7

120E CANVRL41010 0700            83 84  130/ 16/ 19 1015.0F
WVE H/P(F/S)=  3/ 4 WND WVE H/P(F/S)=  3/ 4 SWL H/P/D(F/S/D)=  2/ 90/ 7


END



USA.gov is the U.S. government's official web portal to all federal, state and local government web resources and services.